#timestamp,LO_Frequency,Hit 
1497384015.5,286047012.8,N
1497384035.3,286047012.7,N
1497384055.2,286047012.7,N
1497384075.9,286047012.8,N
1497384095.7,286047013.8,N
1497384115.6,286047013.4,N
1497384135.4,286047012.8,N
1497384155.2,286047013.3,N
1497384175.1,286047013.8,N
1497384176.0,286047013.8,N
1497384195.8,286047012.7,N
1497384215.7,286047012.5,N
1497384235.5,286047012.9,N
1497384255.3,286047012.6,N
1497384275.2,286047012.7,N
1497384295.0,286047013.8,N
1497384295.9,286047013.8,N
1497384315.7,286047015.6,N
1497384335.6,286047013.5,N
1497384355.4,286047012.6,N
1497384375.3,286047015.3,N
1497384395.1,286047015.3,N
1497384396.0,286047015.3,N
1497384415.8,286047012.5,N
1497384435.7,286047013.1,N
1497384455.5,286047013.2,N
1497384475.3,286047013.4,N
1497384495.2,286047013.5,N
1497384515.0,286047012.5,N
1497384515.9,286047012.5,N
1497384535.8,286047013.1,N
1497384555.6,286047012.8,N
1497384575.4,286047013.1,N
1497384595.3,286047013.0,N
1497384615.1,286047013.4,N
1497384635.9,286047013.0,N
1497384655.7,286047015.2,N
1497384675.5,286047013.4,N
1497384695.4,286047013.2,N
1497384715.2,286047013.8,N
1497384735.0,286047013.7,N
1497384735.9,286047013.7,N
1497384755.8,286047012.7,N
1497384775.6,286047013.0,N
1497384795.4,286047015.2,N
1497384815.3,286047012.9,N
1497384835.1,286047012.6,N
1497384855.9,286047012.5,N
1497384875.7,286047015.1,N
1497384895.5,286047013.0,N
1497384915.4,286047013.0,N
1497384935.2,286047012.9,N
1497384955.1,286047013.3,N
1497384956.0,286047013.3,N
1497384975.8,286047013.8,N
1497384995.6,286047013.1,N
1497385015.5,286047012.8,N
1497385035.3,286047013.2,N
1497385055.1,286047013.0,N
1497385075.9,286047013.3,N
1497385095.7,286047013.2,N
1497385115.6,286047012.9,N
1497385135.4,286047012.8,N
1497385155.2,286047012.5,N
1497385175.1,286047013.9,N
1497385176.0,286047013.9,N
1497385195.8,286047013.6,N
1497385215.6,286047013.1,N
1497385235.5,286047012.5,N
1497385255.3,286047012.6,N
1497385275.2,286047012.5,N
1497385295.9,286047015.6,N
1497385315.7,286047012.7,N
1497385335.6,286047015.6,N
1497385355.4,286047013.5,N
1497385375.2,286047013.8,N
1497385395.1,286047013.7,N
1497385396.0,286047013.7,N
1497385415.8,286047012.6,N
1497385435.7,286047012.9,N
1497385455.5,286047013.6,N
1497385475.3,286047013.7,N
1497385495.2,286047015.6,N
1497385515.0,286047017.0,N
1497385515.9,286047017.0,N
1497385535.7,286047015.3,N
1497385555.6,286047015.0,N
1497385575.4,286047015.0,N
1497385595.3,286047012.6,N
1497385615.1,286047012.8,N
1497385616.0,286047012.8,N
1497385635.8,286047013.1,N
1497385655.7,286047012.5,N
1497385675.5,286047013.6,N
1497385695.3,286047013.3,N
1497385715.2,286047013.6,N
1497385735.0,286047012.8,N
1497385735.9,286047012.8,N
1497385755.8,286047013.0,N
1497385775.6,286047012.7,N
1497385795.4,286047012.8,N
1497385815.3,286047013.2,N
1497385835.1,286047012.7,N
1497385855.9,286047012.8,N
1497385875.7,286047013.1,N
1497385895.5,286047012.8,N
1497385915.4,286047015.3,N
1497385935.2,286047015.2,N
1497385955.0,286047015.4,N
1497385955.9,286047015.4,N
1497385975.8,286047015.6,N
1497385995.6,286047012.7,N
1497386015.5,286047013.0,N
1497386035.3,286047015.1,N
1497386055.1,286047012.9,N
1497386075.9,286047013.1,N
1497386095.7,286047013.1,N
1497386115.5,286047013.1,N
1497386135.4,286047013.1,N
1497386155.2,286047012.7,N
1497386175.0,286047015.4,N
1497386175.9,286047015.4,N
1497386195.8,286047012.6,N
1497386215.6,286047015.6,N
1497386235.5,286047015.0,N
1497386255.3,286047015.4,N
1497386275.1,286047013.1,N
1497386295.9,286047015.4,N
1497386315.7,286047012.6,Y
1497386335.6,286047001.8,N
1497386355.4,286047000.1,N
1497386375.2,286047000.5,N
1497386395.1,286047000.1,N
1497386396.0,286047000.1,N
1497386415.8,286047000.1,N
1497386435.6,286047002.5,N
1497386455.5,286046999.8,N
1497386475.3,286046999.7,N
1497386495.2,286046998.5,N
1497386515.9,286047000.2,N
1497386535.7,286046999.9,N
1497386555.6,286047001.7,N
1497386575.4,286046999.9,N
1497386595.2,286047002.7,N
1497386615.1,286047001.0,N
1497386616.0,286047001.0,N
1497386635.8,286047000.0,N
1497386655.7,286047000.9,N
1497386675.5,286047001.6,N
1497386695.3,286047002.6,N
1497386715.2,286047000.6,N
1497386735.9,286047000.8,N
1497386755.7,286047001.0,N
1497386775.6,286047000.5,N
1497386795.4,286047001.0,N
1497386815.3,286047000.7,N
1497386835.1,286047000.7,N
1497386836.0,286047000.7,N
1497386855.8,286047000.4,N
1497386875.7,286047001.1,N
1497386895.5,286047001.2,N
1497386915.3,286047000.6,N
1497386935.2,286047000.6,N
1497386955.0,286047000.5,N
1497386955.9,286047000.5,N
1497386975.8,286047000.3,N
1497386995.6,286047000.8,N
1497387015.4,286047000.4,N
1497387035.3,286047000.9,N
1497387055.1,286047001.0,N
1497387075.9,286046998.1,N
1497387095.7,286046998.2,N
1497387115.5,286047000.5,N
1497387135.4,286047001.2,N
1497387155.2,286047001.0,N
1497387175.0,286047001.2,N
1497387175.9,286047001.2,N
1497387195.8,286047000.8,N
1497387215.6,286047000.4,N
1497387235.5,286047000.2,N
1497387255.3,286047000.3,N
1497387275.1,286046999.9,N
1497387295.9,286047000.2,N
1497387315.7,286047000.1,N
1497387335.5,286046999.9,N
1497387355.4,286047000.8,N
1497387375.2,286047000.6,N
1497387395.1,286046999.9,N
1497387396.0,286046999.9,N
1497387415.8,286047000.8,N
1497387435.6,286047000.5,N
1497387455.5,286047000.3,N
1497387475.3,286047000.0,N
1497387495.1,286047001.0,N
1497387515.9,286047000.2,N
1497387535.7,286047001.0,N
1497387555.6,286047001.0,N
1497387575.4,286047000.0,N
1497387595.2,286047000.2,N
